THORAD DELTA 1 DEB, 8146

Orbit data source: Space-Track

THORAD DELTA 1 DEB, 8146 is space debris in SSO originally from a launch on Fri, 15 Nov 1974 UTC launched from the Air Force Western Test Range (AFWTR). Debris objects in space refer to the collection of defunct objects orbiting the Earth. Examples of debris include non-operational satellites, rocket bodies, and fragments generated from explosions, collisions, or faulty payload assembly.

Loading next visibility...
Identifier
8146, 1974-089Q
Orbit
SSO
Country
Flag of USUS
Related business
Manufacturer
Unknown
Mission
Spacecraft
Bus & Motor
Unknown
Mass
Unknown
Launch date (UTC)
1974-11-15 (51 years ago)
Launch vehicle
Unknown
Launch site
Air Force Western Test Range (AFWTR)
Object type
Payload
Rocket body
Debris
Shape & HBR
Unknown shape, 0.2 m
Radar Cross Section
Medium (>0.1 m² and <1 m²)

Expand to show TLE details & history
Last TLE update: 6 hours ago

TLE from 6 hours ago
0 THORAD DELTA 1 DEB
1 08146U 74089Q   25349.93838553  .00000008  00000-0  31351-3 0  9998
2 08146 101.9962 340.5686 0185417 134.2604 283.3975 12.54901234338133
Epoch: 2025-12-15T22:31Z
TLE epoch observation values (Epoch: 2025-12-15T22:31:16.509Z)
Latitude
53.89017°
Longitude
-98.92888°
Altitude
1,421.644 km
Speed
7.169 km/s
True Right ascension
21h 34m 52s
True Declination
53° 44' 25"
Sunlit
Object was in daylight at epoch
Visualization orbit readout
Latitude
Unknown
Longitude
Unknown
Altitude
Unknown
Speed
Unknown
Apparent Right ascension
Unknown
Apparent Declination
Unknown
Sunlit
N/A
Visualization observer readout
Local Sidereal Time
02:53:17
Azimuth
Unknown
Elevation
Unknown
Doppler factor
Unknown
Orbital elements
Apogee altitude
1,586.606 km
Perigee altitude
1,296.623 km
Semi-major axis
7,819.752 km
Eccentricity
0.01854
Inclination
101.9962°
RAAN
340.5686°
Arg. of periapsis
134.2604°
True anomaly
281.3199°
Mean anomaly
283.3975°
Eccentric anomaly
282.35976°
Mean motion
3.13873 °/min
Orbital period
114.7 mins
BSTAR
0.00031351
Loading maneuver chart data...
Computing Atmospheric mass density...

Documentation

Showing up to 5 results
|